You are listening to:
LHBP Info - Budapest, Hungary

LHBP 010630Z 17005KT 110V190 CAVOK 28/19 Q1014 NOSIG

If stream doesn't start automatically press the play button
If stream stops then reload player then press play